Helicity
166 165 192 214 147 106 104 106 94 93 58 67 59 18 5 -8 58 84 93 95 115 100 79 99 119 111 99 58 69 86 122 229 308 309 343 310 325 282 245 221 186 169 162 178
220 196 198 131 125 112 106 91 87 68 106 70 32 -11 -16 7 20 27 29 47 70 91 77 83 102 89 91 78 52 73 113 211 276 342 305 329 323 291 261 236 190 181 158 158
190 163 145 129 128 138 110 122 95 60 27 27 50 24 26 15 31 51 66 90 68 64 90 137 111 71 54 74 58 95 114 196 277 302 345 441 387 291 272 239 199 193 196 189
135 124 126 144 144 153 109 184 122 91 86 30 138 58 13 -13 48 84 98 103 96 85 89 38 19 62 97 70 71 130 176 225 316 329 276 368 372 318 237 195 210 143 157 174
159 146 154 156 134 98 120 139 121 106 114 101 121 157 138 -14 45 108 99 107 94 87 52 77 97 105 142 170 174 211 258 304 264 256 242 204 174 221 314 281 198 193 161 179
103 91 135 135 119 89 84 103 67 97 135 185 203 222 156 59 -81 -14 16 -20 44 86 82 50 51 78 170 249 321 311 350 333 280 302 318 328 311 269 215 231 181 201 194 204
113 128 120 154 140 103 102 32 106 88 174 189 347 232 217 203 46 -98 -154 -116 -117 -3 77 80 60 39 181 276 364 371 376 432 383 390 335 176 222 177 156 158 140 173 214 183
132 155 178 119 50 22 -0 36 99 203 202 189 95 215 178 86 1 -35 -14 11 -7 4 80 143 90 57 238 305 412 481 450 479 478 446 363 184 154 119 131 143 140 193 165 122
122 107 116 53 77 88 80 55 81 96 116 134 101 98 150 70 52 57 44 88 71 70 135 193 64 369 522 519 502 469 468 450 584 544 432 438 235 210 158 150 165 169 133 99
76 71 24 13 72 98 86 57 81 55 12 -8 87 166 97 31 76 63 57 34 45 65 141 414 262 484 701 755 723 633 583 434 392 419 335 353 269 256 276 218 172 136 118 81
75 71 39 68 51 68 98 79 79 61 52 165 200 113 9 -9 9 -20 -13 5 15 62 78 393 521 881 765 787 732 696 658 562 487 437 214 307 336 342 188 118 103 85 75 70
99 116 59 90 5 1 41 35 52 143 123 43 46 38 73 8 -8 -34 -0 22 99 54 63 166 460 205 669 840 779 562 519 493 415 292 261 235 189 164 136 124 109 78 74 61
100 129 161 167 60 31 32 49 57 51 70 76 65 63 36 21 4 -7 -13 -3 2 15 82 -13 134 274 93 613 609 527 374 418 325 239 172 111 119 105 126 103 60 63 74 84
63 88 97 122 85 55 47 69 62 59 55 58 85 33 28 33 45 -10 -32 -75 -29 14 42 24 -31 10 -64 145 352 622 351 208 214 148 103 81 64 62 76 75 71 83 73 74
61 90 49 39 46 61 35 34 40 45 39 66 50 42 72 38 29 -51 -60 -40 -38 -12 27 20 -10 -24 -35 2 49 273 300 131 91 88 55 34 28 35 45 59 56 55 55 79
41 27 38 51 56 68 91 84 54 61 60 50 29 90 77 22 16 -27 -15 -24 -61 -63 -20 1 -23 -28 -26 -3 -32 -36 16 8 -19 -4 23 29 38 44 46 33 28 48 66 65
38 35 23 34 29 49 71 82 35 43 119 59 23 29 41 37 24 -3 -16 -36 -58 -70 -66 -28 -29 -2 -27 -6 36 14 7 -20 -52 -40 -2 28 45 51 48 42 47 57 61 47
49 30 38 24 30 91 71 20 -4 46 110 56 19 38 60 33 30 83 24 -43 -55 -52 -50 -36 -11 8 5 18 24 35 7 -5 3 -6 12 15 20 11 25 31 39 73 70 46
42 44 47 35 49 73 88 14 4 39 129 100 66 49 38 44 21 30 33 -24 -47 -24 -30 -41 -39 -9 1 11 15 9 5 -3 -28 -26 -15 14 11 43 51 48 49 64 81 78
51 40 47 35 31 31 79 16 48 40 82 33 -1 -40 1 24 21 1 -3 -15 -22 -9 -12 -22 -25 -34 -23 -5 9 -1 -1 10 30 31 21 -6 14 27 44 37 50 63 65 72
39 50 74 52 48 27 82 -2 36 46 -35 -29 -45 -40 -39 -36 17 5 -0 -8 -15 -11 -1 -2 -18 -15 -14 2 20 25 18 26 40 7 -0 1 7 24 28 43 46 55 67 62
64 64 67 70 51 33 37 18 23 -38 -38 -28 -21 -10 6 19 13 -11 -18 -16 -27 -9 3 9 -10 1 -8 -8 -8 13 27 46 42 36 20 2 -24 -34 -15 9 36 53 59 75
32 55 49 60 34 44 46 -43 27 30 -22 -5 -1 -25 -19 -6 3 -9 -28 -40 -56 -48 -39 -28 -19 1 -6 4 -6 22 40 47 40 23 19 20 31 9 -3 -12 -0 36 70 62
40 52 55 49 32 47 1 -20 12 1 -24 -11 13 41 26 -14 -0 13 -6 -13 -28 -33 -33 -37 -34 -27 -11 -9 -11 -10 6 33 33 36 44 42 31 35 45 46 29 34 57 91
42 66 39 51 41 32 3 3 -7 -7 41 27 29 35 27 11 -8 7 17 18 -1 -6 -7 -4 -6 2 3 -5 -16 -11 -7 7 13 10 -2 3 15 18 41 81 63 75 83 97
71 52 56 35 28 20 13 19 34 51 42 30 22 15 14 18 11 24 30 28 21 -13 -13 -11 -29 -21 -21 -33 -32 -32 -28 -12 -15 -16 -21 -24 -35 -21 9 58 177 151 134 173
Wind_Speed
44 49 54 56 54 58 67 69 72 71 71 71 78 108 93 82 82 85 84 82 80 77 67 63 68 72 78 77 79 73 61 59 56 55 55 52 54 47 48 43 41 36 34 32
49 54 49 54 57 64 67 74 77 69 65 79 89 120 108 86 80 73 79 86 85 82 81 75 72 71 74 82 77 71 64 60 60 58 58 51 52 51 48 46 42 39 36 30
51 48 52 56 61 69 66 71 78 82 80 77 91 113 87 70 79 81 75 78 78 80 85 88 90 89 79 72 65 65 56 57 55 55 51 48 45 49 49 50 44 45 35 36
46 45 55 58 58 63 72 71 76 84 88 91 66 112 117 81 74 83 81 83 85 88 94 94 95 97 89 74 61 51 43 40 43 43 50 48 51 51 49 53 47 60 55 46
47 56 62 58 62 59 63 69 80 83 88 94 78 78 95 98 87 90 91 90 91 94 95 99 96 90 77 59 52 40 27 28 33 35 42 40 48 50 44 43 46 47 63 60
46 44 45 49 52 54 68 80 80 70 70 90 69 77 91 84 86 89 91 90 93 96 99 100 93 78 65 48 37 32 16 12 15 19 26 35 35 34 36 34 42 50 55 61
53 48 42 54 60 57 77 81 91 87 72 80 79 88 76 73 83 91 97 94 94 97 98 97 94 70 46 39 30 25 24 15 16 17 20 31 28 33 36 38 45 51 53 60
58 58 48 60 60 69 69 63 68 89 91 97 93 86 85 84 86 85 91 94 93 94 93 90 89 59 32 33 30 23 20 18 17 18 19 33 39 41 44 45 47 51 56 64
56 55 54 62 54 60 62 67 53 75 80 89 80 80 79 78 82 87 93 91 87 86 84 79 56 26 21 20 23 18 18 19 20 25 29 33 41 41 48 48 48 50 52 60
49 65 54 53 58 47 56 54 65 59 79 85 76 84 74 81 85 88 86 77 75 71 71 63 43 22 18 15 18 20 20 20 18 23 31 27 36 40 46 47 49 49 52 59
52 53 58 57 55 59 53 56 55 52 54 74 82 68 45 65 75 81 75 69 65 54 53 48 39 38 24 11 13 18 23 26 24 27 29 32 39 42 46 48 51 53 56 58
46 48 61 56 50 40 39 47 50 59 61 57 59 59 46 64 70 72 56 56 55 50 51 45 41 39 29 13 11 19 23 28 28 31 36 40 41 46 51 55 57 59 60 62
43 48 58 49 44 44 46 46 50 49 47 54 59 52 61 67 66 59 54 58 56 52 53 39 43 37 32 24 14 19 29 32 34 33 38 41 45 51 55 58 59 60 62 66
37 40 42 48 49 50 58 54 53 45 49 53 47 61 68 63 62 52 53 58 57 56 56 44 48 43 40 39 25 31 37 38 42 43 46 48 52 56 59 62 64 66 67 66
37 43 44 46 52 51 48 48 45 45 43 46 59 52 60 61 61 56 58 60 58 58 59 53 50 51 44 43 42 39 45 50 51 51 53 56 58 59 61 62 64 63 64 65
36 41 48 52 48 41 40 36 46 39 39 54 66 42 59 66 65 59 58 57 59 59 57 59 60 60 55 52 51 48 49 52 54 55 59 60 62 63 65 65 66 64 64 65
37 41 44 43 42 42 39 34 41 38 36 50 49 56 64 67 65 58 58 58 61 63 65 67 68 68 65 62 59 58 56 59 59 61 63 64 66 67 68 68 68 68 69 69
36 38 35 38 40 39 28 29 30 31 27 49 55 60 64 66 67 51 56 60 61 64 65 66 68 68 65 63 62 62 63 63 64 66 67 67 67 68 69 70 70 71 72 73
25 33 35 33 37 31 26 32 34 34 36 49 56 61 61 60 52 50 59 62 64 66 64 64 65 67 67 66 65 63 63 64 65 67 68 68 69 72 72 73 74 75 76 76
29 27 27 34 32 29 28 54 37 19 16 49 54 51 57 63 62 62 66 67 67 65 67 66 64 66 67 68 68 68 68 69 72 73 74 73 74 75 76 76 76 76 76 78
25 27 25 31 26 31 33 60 40 28 25 43 42 37 12 6 49 59 60 60 63 66 68 66 65 68 69 70 71 71 71 73 75 75 75 75 76 76 75 75 76 75 75 76
23 26 28 32 29 30 42 47 43 32 30 35 19 24 31 10 10 55 55 52 55 56 60 62 63 65 66 69 71 72 72 77 78 78 79 79 78 76 76 77 76 75 73 75
21 22 29 20 32 32 35 20 32 29 42 46 44 41 40 47 34 30 38 46 51 56 58 60 64 69 72 73 73 76 77 79 79 77 77 79 80 77 77 77 75 75 75 77
25 26 28 35 31 32 43 42 40 41 44 45 49 49 55 45 45 47 50 60 63 65 65 67 69 70 73 74 74 73 75 78 78 80 81 81 81 81 78 76 75 76 77 80
30 26 36 24 37 41 17 42 45 45 42 47 49 52 54 58 59 60 63 64 67 69 70 68 69 68 70 70 71 73 75 76 77 77 78 81 82 80 79 76 75 74 71 75
31 31 34 38 36 41 41 41 40 39 44 48 52 55 57 59 63 63 63 63 66 70 69 67 70 72 74 75 76 76 74 74 75 79 78 78 78 77 77 76 75 69 67 68
Wind_Direction
320 311 306 308 309 309 306 306 306 308 309 307 302 290 299 307 306 304 303 303 303 301 305 301 296 291 290 290 285 285 279 268 254 247 246 251 255 256 261 262 266 268 266 262
315 308 314 313 312 307 306 305 306 310 311 307 303 287 295 305 305 307 306 302 301 300 300 299 298 297 295 291 288 286 279 267 250 247 248 255 257 262 263 264 263 261 260 252
310 311 318 315 311 307 308 308 307 305 308 307 303 293 304 311 308 308 309 307 306 302 301 297 294 296 297 296 293 287 281 269 251 247 243 252 262 273 268 269 268 265 256 259
314 317 317 313 310 313 304 313 310 306 307 304 315 298 297 310 312 313 313 312 309 306 302 298 298 295 293 294 293 289 285 267 251 242 244 249 253 261 269 272 275 273 268 267
312 314 313 313 312 317 309 315 310 308 305 305 307 301 299 307 308 311 312 311 309 306 302 298 298 296 297 293 294 286 282 274 253 243 238 256 260 271 270 272 277 274 273 273
320 329 328 322 322 323 320 314 313 312 309 301 309 309 304 308 310 312 314 314 313 309 303 300 299 297 297 287 291 291 270 264 257 254 267 262 270 272 276 278 282 282 279 276
318 322 323 330 321 323 321 318 308 306 306 301 312 308 306 313 317 315 312 313 313 310 306 302 298 294 292 279 280 282 280 263 245 266 285 285 287 288 293 294 290 288 285 278
314 311 322 323 322 316 318 321 313 305 305 305 307 302 305 314 315 316 315 312 313 314 311 306 300 288 276 274 282 273 274 277 283 282 278 301 292 295 297 299 296 296 286 279
317 315 319 322 326 322 317 317 323 310 308 308 308 309 313 320 322 323 321 318 314 318 316 315 316 299 277 276 281 285 277 284 295 295 298 297 295 301 301 301 301 300 294 281
321 315 319 322 327 333 324 328 319 319 314 313 315 316 320 327 327 327 326 325 320 318 318 317 326 319 281 272 278 287 290 286 302 316 315 313 309 309 313 311 304 300 297 284
324 318 319 325 322 320 326 326 329 323 322 318 317 321 339 339 339 334 324 316 318 329 331 329 329 329 312 290 284 288 293 296 305 307 316 325 323 322 315 312 308 299 295 289
329 326 319 325 333 337 336 333 335 323 322 327 328 327 346 334 332 325 302 328 341 333 329 329 324 342 320 319 308 309 306 306 313 311 313 322 317 314 309 309 306 302 298 294
332 327 323 327 335 345 337 338 334 331 327 320 322 326 326 321 321 316 318 340 334 332 331 313 336 315 325 319 333 324 327 313 311 311 316 314 316 310 306 304 299 302 304 298
339 332 328 322 330 334 329 331 331 332 323 325 325 322 311 307 314 313 317 338 332 335 336 324 329 325 327 327 334 316 316 312 307 308 309 310 307 304 308 305 304 309 305 300
342 330 331 326 325 328 327 331 335 332 329 323 321 326 313 303 295 303 311 321 325 328 329 325 324 324 313 319 336 319 308 306 306 307 306 302 305 306 310 312 313 318 310 304
350 341 339 336 340 339 336 342 339 342 341 323 296 324 323 307 301 302 307 315 322 325 315 318 322 319 310 310 324 321 307 306 304 305 306 307 308 307 310 312 312 318 315 308
354 351 350 346 352 350 348 356 350 353 357 321 326 316 315 308 307 308 307 311 317 320 318 317 317 319 317 315 314 314 305 307 312 313 313 311 308 309 309 309 310 311 311 308
4 360 360 351 355 350 21 39 22 12 12 316 316 323 318 307 310 328 319 312 312 316 318 319 319 319 317 316 319 314 317 319 316 316 312 312 311 308 309 310 308 308 309 305
16 8 1 360 356 6 17 19 14 7 355 330 323 324 307 297 316 325 330 320 316 323 318 318 319 321 326 324 319 314 311 313 314 312 313 315 314 308 307 307 308 308 307 305
23 21 17 3 1 3 12 350 18 55 62 333 322 291 305 310 310 312 319 323 324 328 328 322 324 327 330 323 322 326 326 324 320 316 315 316 314 309 306 307 311 309 308 303
14 13 3 360 1 351 352 324 12 31 238 283 287 279 232 332 330 315 315 313 321 324 326 324 327 329 330 329 330 328 326 323 318 321 321 321 319 317 316 314 313 312 310 308
20 15 7 356 356 357 350 339 337 253 251 273 242 257 279 242 252 331 326 314 315 312 316 318 321 320 322 326 330 332 332 329 331 328 323 322 321 320 318 314 312 311 311 310
25 23 6 38 351 358 1 221 18 27 295 322 306 294 295 307 290 287 299 309 316 321 318 316 319 321 328 330 330 334 336 336 335 333 331 329 326 324 322 317 314 311 311 307
345 349 359 353 4 2 304 293 343 332 305 317 340 4 349 302 302 303 308 330 335 336 333 329 332 333 330 332 333 334 332 331 331 329 328 329 328 326 323 320 317 312 309 306
319 342 327 11 345 334 307 306 311 307 331 328 339 350 346 338 327 334 349 348 341 334 332 341 345 349 349 347 345 344 340 337 337 335 334 331 329 327 324 322 317 313 312 308
304 313 321 338 342 319 321 320 329 338 333 331 332 332 336 342 340 348 350 353 344 335 339 342 337 339 338 338 340 340 341 346 344 340 338 336 334 331 328 324 319 318 316 312